Retour au catalogue

DELTA 1 DEB

ActifSSO
NORAD 9726·DEBRIS·🇺🇸 United States

Lancé Nov 6, 1973 depuis Vandenberg Space Force Base

Loading…

Prochains Passages (prochaines 24 heures)

TLE

FraisSource: Space-Track

Époque: Sep 14, 2026, 12:15 UTC

1 09726U 73086GC  26257.51080486 -.00000005  00000-0  36262-3 0  9990
2 09726 102.5887 274.4138 0079388 199.9191 318.1184 12.26680102292120

Suivez DELTA 1 DEB en temps réel avec AllMySat

Download on the App Store